This demonstration page uses our WeatherBlox Daily Observations layout. Learn more.

Left ArrowRight Arrow

Hourly Observations for August 21, 2020

Temp ( °F °C ) Dew Point ( °F °C ) Humidity (%) Winds ( mph kmh ) Pressure ( in mb ) Visibility ( mi km ) Precip ( " mm )
12:52 am 00:52 Clear 66 18.9 57 13.9 73 73 SE 6 9 29.90 1012 10 16 0.00 0.00
1:52 am 01:52 Clear 65 18.3 58 14.4 78 78 SE 8 13 29.90 1012 10 16 0.00 0.00
2:52 am 02:52 Clear 65 18.3 58 14.4 78 78 SE 8 13 29.90 1013 10 16 0.00 0.00
3:52 am 03:52 Clear 64 17.8 59 15 84 84 SSE 9 15 29.90 1012 10 16 0.00 0.00
4:52 am 04:52 Clear 64 17.8 59 15 84 84 SSE 8 13 29.90 1013 10 16 0.00 0.00
5:52 am 05:52 Clear 61 16.1 57 13.9 87 87 SW 5 7 29.91 1013 10 16 0.00 0.00
6:52 am 06:52 Sunny 60 15.6 58 14.4 93 93 SSE 8 13 29.92 1013 10 16 0.00 0.00
7:52 am 07:52 Sunny 66 18.9 61 16.1 84 84 SSE 8 13 29.93 1014 10 16 0.00 0.00
8:52 am 08:52 Sunny 71 21.7 61 16.1 71 71 SSE 9 15 29.93 1014 10 16 0.00 0.00
9:52 am 09:52 Sunny 76 24.4 60 15.6 58 58 SSW 8 13 29.94 1014 10 16 0.00 0.00
10:52 am 10:52 Sunny 80 26.7 61 16.1 52 52 SSW 7 11 29.93 1014 10 16 0.00 0.00
11:52 am 11:52 Sunny 83 28.3 58 14.4 43 43 VRB 5 7 29.92 1013 10 16 0.00 0.00
12:52 pm 12:52 Mostly Sunny 86 30 56 13.3 36 36 VRB 3 6 29.91 1013 10 16 0.00 0.00
1:52 pm 13:52 Mostly Sunny 88 31.1 55 12.8 33 33 S 7 11 29.88 1012 10 16 0.00 0.00
2:52 pm 14:52 Mostly Cloudy 85 29.4 56 13.3 37 37 NW 6 9 29.87 1012 10 16 0.00 0.00
3:52 pm 15:52 Mostly Cloudy 90 32.2 57 13.9 33 33 NNW 7 11 29.85 1011 10 16 0.00 0.00
4:52 pm 16:52 Partly Cloudy 89 31.7 58 14.4 35 35 NE 5 7 29.86 1011 10 16 0.00 0.00
5:52 pm 17:52 Sunny 88 31.1 58 14.4 36 36 N 8 13 29.86 1011 10 16 0.00 0.00
6:52 pm 18:52 Sunny 85 29.4 57 13.9 39 39 NNE 9 15 29.87 1011 10 16 0.00 0.00
7:52 pm 19:52 Sunny 81 27.2 58 14.4 45 45 NNE 5 7 29.88 1012 10 16 0.00 0.00
8:52 pm 20:52 Clear 77 25 60 15.6 56 56 NNE 3 6 29.88 1012 10 16 0.00 0.00
9:52 pm 21:52 Clear 72 22.2 60 15.6 66 66 Calm 29.90 1013 10 16 0.00 0.00
10:52 pm 22:52 Clear 73 22.8 60 15.6 64 64 Calm 29.89 1012 10 16 0.00 0.00
11:52 pm 23:52 Clear 67 19.4 60 15.6 79 79 Calm 29.89 1012 10 16 0.00 0.00

Powered by AerisWeather